Time,TemperatureF,DewpointF,PressureIn,WindDirection,WindDirectionDegrees,WindSpeedMPH,WindSpeedGustMPH,Humidity,HourlyPrecipIn,Conditions,Clouds,dailyrainin,SoftwareType,DateUTC
2013-06-19 00:01:00,80.0,63.0,-100.00,ESE,110,6.0,11.0,55,0.00,,,-99.99,,2013-06-19 00:01:00,
2013-06-19 00:11:00,80.0,62.0,-100.00,East,85,7.0,9.0,53,0.00,,,-99.99,,2013-06-19 00:11:00,
2013-06-19 00:22:00,80.0,61.0,-100.00,East,80,6.0,9.0,52,0.00,,,-99.99,,2013-06-19 00:22:00,
2013-06-19 00:33:00,80.0,61.0,-100.00,ESE,105,6.0,7.0,52,0.00,,,-99.99,,2013-06-19 00:33:00,
2013-06-19 00:43:00,79.0,62.0,-100.00,ESE,105,4.0,8.0,55,0.00,,,-99.99,,2013-06-19 00:43:00,
2013-06-19 00:53:00,79.0,61.0,-100.00,ESE,105,4.0,7.0,53,0.00,,,-99.99,,2013-06-19 00:53:00,
2013-06-19 01:01:00,79.0,62.0,-100.00,East,100,4.0,6.0,55,0.00,,,-99.99,,2013-06-19 01:01:00,
2013-06-19 01:11:00,78.0,61.0,-100.00,East,100,6.0,8.0,56,0.00,,,-99.99,,2013-06-19 01:11:00,
2013-06-19 01:22:00,78.0,61.0,-100.00,East,100,3.0,8.0,56,0.00,,,-99.99,,2013-06-19 01:22:00,
2013-06-19 01:32:00,77.0,62.0,-100.00,East,100,2.0,5.0,60,0.00,,,-99.99,,2013-06-19 01:32:00,
2013-06-19 01:42:00,76.0,62.0,-100.00,ESE,105,3.0,6.0,62,0.00,,,-99.99,,2013-06-19 01:42:00,
2013-06-19 01:53:00,76.0,62.0,-100.00,East,100,3.0,5.0,62,0.00,,,-99.99,,2013-06-19 01:53:00,
2013-06-19 02:01:00,75.0,63.0,-100.00,East,95,2.0,5.0,66,0.00,,,-99.99,,2013-06-19 02:01:00,
2013-06-19 02:11:00,75.0,64.0,-100.00,ESE,105,3.0,5.0,67,0.00,,,-99.99,,2013-06-19 02:11:00,
2013-06-19 02:21:00,74.0,63.0,-100.00,ESE,120,2.0,4.0,67,0.00,,,-99.99,,2013-06-19 02:21:00,
2013-06-19 02:32:00,74.0,63.0,-100.00,SE,125,4.0,6.0,68,0.00,,,-99.99,,2013-06-19 02:32:00,
2013-06-19 02:42:00,74.0,62.0,-100.00,ESE,115,4.0,6.0,67,0.00,,,-99.99,,2013-06-19 02:42:00,
2013-06-19 02:51:00,73.0,63.0,-100.00,ESE,110,4.0,6.0,69,0.00,,,-99.99,,2013-06-19 02:51:00,
2013-06-19 03:01:00,73.0,64.0,-100.00,SE,130,6.0,7.0,72,0.00,,,-99.99,,2013-06-19 03:01:00,
2013-06-19 03:11:00,73.0,63.0,-100.00,SE,125,4.0,7.0,72,0.00,,,-99.99,,2013-06-19 03:11:00,
2013-06-19 03:22:00,72.0,63.0,-100.00,ESE,110,3.0,6.0,72,0.00,,,-99.99,,2013-06-19 03:22:00,
2013-06-19 03:33:00,73.0,63.0,-100.00,East,95,3.0,6.0,70,0.00,,,-99.99,,2013-06-19 03:33:00,
2013-06-19 03:42:00,72.0,62.0,-100.00,East,85,4.0,6.0,70,0.00,,,-99.99,,2013-06-19 03:42:00,
2013-06-19 03:52:00,72.0,63.0,-100.00,East,100,1.0,5.0,72,0.00,,,-99.99,,2013-06-19 03:52:00,
2013-06-19 04:01:00,71.0,64.0,-100.00,ENE,65,2.0,3.0,77,0.00,,,-99.99,,2013-06-19 04:01:00,
2013-06-19 04:11:00,70.0,64.0,-100.00,NNE,25,1.0,3.0,79,0.00,,,-99.99,,2013-06-19 04:11:00,
2013-06-19 04:22:00,70.0,63.0,-100.00,NE,50,1.0,2.0,81,0.00,,,-99.99,,2013-06-19 04:22:00,
2013-06-19 04:32:00,69.0,63.0,-100.00,East,90,1.0,3.0,81,0.00,,,-99.99,,2013-06-19 04:32:00,
2013-06-19 04:42:00,69.0,63.0,-100.00,NE,55,1.0,4.0,82,0.00,,,-99.99,,2013-06-19 04:42:00,
2013-06-19 04:53:00,69.0,64.0,-100.00,NE,55,1.0,3.0,83,0.00,,,-99.99,,2013-06-19 04:53:00,
2013-06-19 05:01:00,68.0,64.0,-100.00,ENE,60,2.0,4.0,85,0.00,,,-99.99,,2013-06-19 05:01:00,
2013-06-19 05:11:00,68.0,63.0,-100.00,ESE,115,2.0,4.0,84,0.00,,,-99.99,,2013-06-19 05:11:00,
2013-06-19 05:22:00,69.0,63.0,-100.00,SE,130,2.0,4.0,81,0.00,,,-99.99,,2013-06-19 05:22:00,
2013-06-19 05:32:00,69.0,63.0,-100.00,SE,125,2.0,4.0,81,0.00,,,-99.99,,2013-06-19 05:32:00,
2013-06-19 05:42:00,67.0,63.0,-100.00,NE,40,1.0,2.0,88,0.00,,,-99.99,,2013-06-19 05:42:00,
2013-06-19 05:52:00,67.0,63.0,-100.00,ENE,75,0.0,4.0,88,0.00,,,-99.99,,2013-06-19 05:52:00,
2013-06-19 06:02:00,66.0,64.0,-100.00,North,0,0.0,3.0,90,0.00,,,-99.99,,2013-06-19 06:02:00,
2013-06-19 06:11:00,66.0,63.0,-100.00,ENE,65,2.0,4.0,90,0.00,,,-99.99,,2013-06-19 06:11:00,
2013-06-19 06:22:00,66.0,64.0,-100.00,ENE,70,1.0,6.0,92,0.00,,,-99.99,,2013-06-19 06:22:00,
2013-06-19 06:33:00,66.0,64.0,-100.00,NNE,15,2.0,3.0,92,0.00,,,-99.99,,2013-06-19 06:33:00,
2013-06-19 06:52:00,66.0,63.0,-100.00,NE,55,2.0,4.0,91,0.00,,,-99.99,,2013-06-19 06:52:00,
2013-06-19 07:01:00,66.0,63.0,-100.00,East,90,2.0,4.0,90,0.00,,,-99.99,,2013-06-19 07:01:00,
2013-06-19 07:11:00,66.0,63.0,-100.00,SE,125,3.0,6.0,90,0.00,,,-99.99,,2013-06-19 07:11:00,
2013-06-19 07:22:00,66.0,63.0,-100.00,East,100,1.0,5.0,89,0.00,,,-99.99,,2013-06-19 07:22:00,
2013-06-19 07:33:00,66.0,63.0,-100.00,ESE,110,2.0,4.0,89,0.00,,,-99.99,,2013-06-19 07:33:00,
2013-06-19 07:43:00,66.0,63.0,-100.00,SE,125,4.0,5.0,90,0.00,,,-99.99,,2013-06-19 07:43:00,
2013-06-19 07:53:00,66.0,63.0,-100.00,ESE,115,3.0,6.0,90,0.13,,,-99.99,,2013-06-19 07:53:00,
2013-06-19 08:02:00,66.0,63.0,-100.00,ESE,115,5.0,8.0,90,0.00,,,-99.99,,2013-06-19 08:02:00,
2013-06-19 08:11:00,66.0,63.0,-100.00,SE,125,6.0,9.0,90,0.00,,,-99.99,,2013-06-19 08:11:00,
2013-06-19 08:22:00,65.0,63.0,-100.00,SE,135,6.0,9.0,91,0.00,,,-99.99,,2013-06-19 08:22:00,
2013-06-19 08:33:00,65.0,63.0,-100.00,SE,125,7.0,11.0,92,0.00,,,-99.99,,2013-06-19 08:33:00,
2013-06-19 08:43:00,65.0,62.0,-100.00,SE,125,8.0,11.0,91,0.00,,,-99.99,,2013-06-19 08:43:00,
2013-06-19 08:53:00,65.0,62.0,-100.00,ESE,120,7.0,12.0,90,0.00,,,-99.99,,2013-06-19 08:53:00,
2013-06-19 09:02:00,65.0,62.0,-100.00,SE,140,6.0,12.0,90,0.00,,,-99.99,,2013-06-19 09:02:00,
2013-06-19 09:11:00,65.0,62.0,-100.00,SE,135,6.0,11.0,92,0.00,,,-99.99,,2013-06-19 09:11:00,
2013-06-19 09:22:00,65.0,62.0,-100.00,SE,130,6.0,10.0,92,0.00,,,-99.99,,2013-06-19 09:22:00,
2013-06-19 09:34:00,65.0,63.0,-100.00,SE,135,6.0,9.0,93,0.00,,,-99.99,,2013-06-19 09:34:00,
2013-06-19 09:43:00,64.0,63.0,-100.00,SE,125,3.0,9.0,94,0.00,,,-99.99,,2013-06-19 09:43:00,
2013-06-19 09:53:00,64.0,63.0,-100.00,ESE,120,2.0,6.0,96,0.00,,,-99.99,,2013-06-19 09:53:00,
2013-06-19 10:02:00,64.0,63.0,-100.00,SSE,165,1.0,6.0,96,0.00,,,-99.99,,2013-06-19 10:02:00,
2013-06-19 10:12:00,64.0,63.0,-100.00,SE,125,1.0,8.0,97,0.00,,,-99.99,,2013-06-19 10:12:00,
2013-06-19 10:22:00,64.0,63.0,-100.00,SE,130,1.0,9.0,98,0.00,,,-99.99,,2013-06-19 10:22:00,
2013-06-19 10:33:00,64.0,63.0,-100.00,SE,125,4.0,9.0,98,0.00,,,-99.99,,2013-06-19 10:33:00,
2013-06-19 10:42:00,64.0,63.0,-100.00,East,100,2.0,9.0,98,0.00,,,-99.99,,2013-06-19 10:42:00,
2013-06-19 10:52:00,63.0,63.0,-100.00,SE,140,2.0,5.0,99,0.00,,,-99.99,,2013-06-19 10:52:00,
2013-06-19 11:02:00,63.0,63.0,-100.00,ESE,115,2.0,4.0,99,0.00,,,-99.99,,2013-06-19 11:02:00,
2013-06-19 11:11:00,63.0,63.0,-100.00,SSW,205,0.0,4.0,99,0.00,,,-99.99,,2013-06-19 11:11:00,
2013-06-19 11:22:00,64.0,64.0,-100.00,SSE,155,2.0,4.0,99,0.00,,,-99.99,,2013-06-19 11:22:00,
2013-06-19 11:33:00,64.0,64.0,-100.00,East,100,2.0,6.0,98,0.00,,,-99.99,,2013-06-19 11:33:00,
2013-06-19 11:42:00,64.0,64.0,-100.00,ESE,115,2.0,6.0,99,0.00,,,-99.99,,2013-06-19 11:42:00,
2013-06-19 11:54:00,64.0,64.0,-100.00,ESE,110,3.0,6.0,99,0.00,,,-99.99,,2013-06-19 11:54:00,
2013-06-19 12:01:00,64.0,64.0,-100.00,ESE,110,3.0,6.0,99,0.00,,,-99.99,,2013-06-19 12:01:00,
2013-06-19 12:12:00,64.0,64.0,-100.00,SSE,150,2.0,6.0,98,0.00,,,-99.99,,2013-06-19 12:12:00,
2013-06-19 12:22:00,65.0,64.0,-100.00,ESE,120,3.0,7.0,97,0.00,,,-99.99,,2013-06-19 12:22:00,
2013-06-19 12:34:00,65.0,64.0,-100.00,ESE,115,3.0,6.0,97,0.00,,,-99.99,,2013-06-19 12:34:00,
2013-06-19 12:44:00,65.0,64.0,-100.00,SE,130,3.0,8.0,95,0.00,,,-99.99,,2013-06-19 12:44:00,
2013-06-19 12:52:00,67.0,64.0,-100.00,SSE,150,2.0,8.0,92,0.00,,,-99.99,,2013-06-19 12:52:00,
2013-06-19 13:02:00,67.0,64.0,-100.00,SSE,150,2.0,8.0,92,0.00,,,-99.99,,2013-06-19 13:02:00,
2013-06-19 13:12:00,67.0,64.0,-100.00,SE,125,1.0,6.0,89,0.00,,,-99.99,,2013-06-19 13:12:00,
2013-06-19 13:22:00,69.0,65.0,-100.00,SE,135,3.0,7.0,88,0.00,,,-99.99,,2013-06-19 13:22:00,
2013-06-19 13:33:00,69.0,65.0,-100.00,SE,135,2.0,7.0,86,0.00,,,-99.99,,2013-06-19 13:33:00,
2013-06-19 13:42:00,70.0,65.0,-100.00,SSE,160,2.0,7.0,85,0.00,,,-99.99,,2013-06-19 13:42:00,
2013-06-19 13:53:00,71.0,65.0,-100.00,SSW,195,3.0,9.0,82,0.00,,,-99.99,,2013-06-19 13:53:00,
2013-06-19 14:02:00,72.0,65.0,-100.00,SE,140,3.0,7.0,79,0.00,,,-99.99,,2013-06-19 14:02:00,
2013-06-19 14:12:00,71.0,65.0,-100.00,SSE,165,3.0,9.0,82,0.00,,,-99.99,,2013-06-19 14:12:00,
2013-06-19 14:22:00,71.0,65.0,-100.00,SSE,150,5.0,9.0,81,0.00,,,-99.99,,2013-06-19 14:22:00,
2013-06-19 14:33:00,72.0,66.0,-100.00,SE,135,2.0,9.0,79,0.00,,,-99.99,,2013-06-19 14:33:00,
2013-06-19 14:43:00,73.0,66.0,-100.00,SE,130,4.0,10.0,78,0.00,,,-99.99,,2013-06-19 14:43:00,
2013-06-19 14:52:00,74.0,67.0,-100.00,SE,125,3.0,9.0,76,0.00,,,-99.99,,2013-06-19 14:52:00,
2013-06-19 15:01:00,74.0,67.0,-100.00,SE,125,3.0,9.0,76,0.00,,,-99.99,,2013-06-19 15:01:00,
2013-06-19 15:11:00,75.0,67.0,-100.00,South,175,4.0,8.0,76,0.00,,,-99.99,,2013-06-19 15:11:00,
2013-06-19 15:22:00,76.0,67.0,-100.00,SSE,165,5.0,9.0,74,0.00,,,-99.99,,2013-06-19 15:22:00,
2013-06-19 15:33:00,77.0,67.0,-100.00,SSE,155,3.0,9.0,71,0.00,,,-99.99,,2013-06-19 15:33:00,
2013-06-19 15:42:00,77.0,67.0,-100.00,SSW,200,5.0,11.0,71,0.00,,,-99.99,,2013-06-19 15:42:00,
2013-06-19 15:53:00,78.0,68.0,-100.00,South,185,4.0,9.0,70,0.00,,,-99.99,,2013-06-19 15:53:00,
2013-06-19 16:01:00,78.0,68.0,-100.00,South,185,4.0,9.0,70,0.00,,,-99.99,,2013-06-19 16:01:00,
2013-06-19 16:11:00,78.0,68.0,-100.00,SSE,150,2.0,9.0,69,0.00,,,-99.99,,2013-06-19 16:11:00,
2013-06-19 16:22:00,79.0,68.0,-100.00,SSE,165,3.0,10.0,69,0.00,,,-99.99,,2013-06-19 16:22:00,
2013-06-19 16:34:00,78.0,67.0,-100.00,SSE,150,4.0,11.0,68,0.00,,,-99.99,,2013-06-19 16:34:00,
2013-06-19 16:43:00,79.0,68.0,-100.00,South,175,5.0,13.0,69,0.00,,,-99.99,,2013-06-19 16:43:00,
2013-06-19 16:52:00,80.0,68.0,-100.00,SSE,160,5.0,12.0,67,0.00,,,-99.99,,2013-06-19 16:52:00,
2013-06-19 17:02:00,81.0,68.0,-100.00,SSW,200,7.0,12.0,65,0.00,,,-99.99,,2013-06-19 17:02:00,
2013-06-19 17:12:00,81.0,68.0,-100.00,SSW,210,6.0,14.0,65,0.00,,,-99.99,,2013-06-19 17:12:00,
2013-06-19 17:22:00,81.0,71.0,-100.00,SSE,160,4.0,16.0,69,0.00,,,-99.99,,2013-06-19 17:22:00,
2013-06-19 17:34:00,82.0,69.0,-100.00,SSW,195,6.0,11.0,65,0.00,,,-99.99,,2013-06-19 17:34:00,
2013-06-19 17:43:00,82.0,69.0,-100.00,SSW,195,6.0,11.0,65,0.00,,,-99.99,,2013-06-19 17:43:00,
2013-06-19 17:53:00,82.0,70.0,-100.00,SW,215,4.0,13.0,67,0.00,,,-99.99,,2013-06-19 17:53:00,
2013-06-19 18:01:00,82.0,69.0,-100.00,SSW,210,6.0,11.0,64,0.00,,,-99.99,,2013-06-19 18:01:00,
2013-06-19 18:11:00,82.0,69.0,-100.00,South,170,4.0,8.0,63,0.00,,,-99.99,,2013-06-19 18:11:00,
2013-06-19 18:24:00,84.0,70.0,-100.00,SW,215,8.0,13.0,62,0.00,,,-99.99,,2013-06-19 18:24:00,
2013-06-19 18:33:00,83.0,70.0,-100.00,SSW,210,8.0,14.0,63,0.00,,,-99.99,,2013-06-19 18:33:00,
2013-06-19 18:44:00,84.0,71.0,-100.00,SSW,205,6.0,16.0,64,0.00,,,-99.99,,2013-06-19 18:44:00,
2013-06-19 18:53:00,84.0,70.0,-100.00,SSW,210,9.0,16.0,63,0.00,,,-99.99,,2013-06-19 18:53:00,
2013-06-19 19:01:00,83.0,69.0,-100.00,SSE,165,6.0,16.0,62,0.00,,,-99.99,,2013-06-19 19:01:00,
2013-06-19 19:12:00,83.0,70.0,-100.00,SSW,210,7.0,13.0,64,0.00,,,-99.99,,2013-06-19 19:12:00,
2013-06-19 19:22:00,83.0,68.0,-100.00,South,175,4.0,15.0,59,0.00,,,-99.99,,2013-06-19 19:22:00,
2013-06-19 19:32:00,85.0,66.0,-100.00,SSW,210,7.0,15.0,53,0.00,,,-99.99,,2013-06-19 19:32:00,
2013-06-19 19:43:00,85.0,66.0,-100.00,SSW,210,7.0,15.0,53,0.00,,,-99.99,,2013-06-19 19:43:00,
2013-06-19 19:52:00,84.0,65.0,-100.00,South,185,3.0,8.0,53,0.00,,,-99.99,,2013-06-19 19:52:00,
2013-06-19 20:02:00,84.0,67.0,-100.00,South,185,1.0,13.0,56,0.00,,,-99.99,,2013-06-19 20:02:00,
2013-06-19 20:11:00,84.0,65.0,-100.00,South,185,4.0,11.0,53,0.00,,,-99.99,,2013-06-19 20:11:00,
2013-06-19 20:22:00,85.0,64.0,-100.00,South,185,4.0,17.0,50,0.00,,,-99.99,,2013-06-19 20:22:00,
2013-06-19 20:33:00,84.0,67.0,-100.00,SSW,210,6.0,12.0,56,0.00,,,-99.99,,2013-06-19 20:33:00,
2013-06-19 20:42:00,84.0,67.0,-100.00,SSW,210,6.0,12.0,56,0.00,,,-99.99,,2013-06-19 20:42:00,
2013-06-19 20:52:00,83.0,66.0,-100.00,SSW,200,6.0,18.0,56,0.00,,,-99.99,,2013-06-19 20:52:00,
2013-06-19 21:02:00,83.0,66.0,-100.00,SSW,200,6.0,18.0,56,0.00,,,-99.99,,2013-06-19 21:02:00,
2013-06-19 21:11:00,83.0,65.0,-100.00,South,170,5.0,11.0,54,0.00,,,-99.99,,2013-06-19 21:11:00,
2013-06-19 21:22:00,83.0,67.0,-100.00,SSW,210,12.0,18.0,58,0.00,,,-99.99,,2013-06-19 21:22:00,
2013-06-19 21:33:00,83.0,66.0,-100.00,SW,215,11.0,16.0,56,0.00,,,-99.99,,2013-06-19 21:33:00,
2013-06-19 21:44:00,85.0,67.0,-100.00,SSW,205,7.0,13.0,54,0.00,,,-99.99,,2013-06-19 21:44:00,
2013-06-19 21:52:00,85.0,67.0,-100.00,SSW,205,12.0,17.0,54,0.00,,,-99.99,,2013-06-19 21:52:00,
2013-06-19 22:01:00,85.0,65.0,-100.00,South,190,7.0,17.0,51,0.00,,,-99.99,,2013-06-19 22:01:00,
2013-06-19 22:11:00,85.0,66.0,-100.00,SW,215,11.0,19.0,53,0.00,,,-99.99,,2013-06-19 22:11:00,
2013-06-19 22:22:00,85.0,66.0,-100.00,South,190,6.0,14.0,52,0.00,,,-99.99,,2013-06-19 22:22:00,
2013-06-19 22:34:00,85.0,63.0,-100.00,SSE,165,7.0,14.0,47,0.00,,,-99.99,,2013-06-19 22:34:00,
2013-06-19 22:43:00,84.0,68.0,-100.00,SW,220,9.0,14.0,59,0.00,,,-99.99,,2013-06-19 22:43:00,
2013-06-19 22:53:00,83.0,64.0,-100.00,SSW,210,9.0,19.0,52,0.00,,,-99.99,,2013-06-19 22:53:00,
2013-06-19 23:02:00,83.0,63.0,-100.00,SSW,205,9.0,16.0,50,0.00,,,-99.99,,2013-06-19 23:02:00,
2013-06-19 23:12:00,83.0,64.0,-100.00,SSW,205,12.0,17.0,51,0.00,,,-99.99,,2013-06-19 23:12:00,
2013-06-19 23:23:00,83.0,65.0,-100.00,South,175,10.0,20.0,55,0.00,,,-99.99,,2013-06-19 23:23:00,
2013-06-19 23:33:00,82.0,65.0,-100.00,SSW,205,6.0,13.0,56,0.00,,,-99.99,,2013-06-19 23:33:00,
2013-06-19 23:43:00,81.0,65.0,-100.00,SW,215,6.0,14.0,58,0.00,,,-99.99,,2013-06-19 23:43:00,
2013-06-19 23:52:00,81.0,68.0,-100.00,SSE,165,4.0,12.0,64,0.00,,,-99.99,,2013-06-19 23:52:00,